Time,TemperatureF,DewpointF,PressureIn,WindDirection,WindDirectionDegrees,WindSpeedMPH,WindSpeedGustMPH,Humidity,HourlyPrecipIn,Conditions,Clouds,dailyrainin,SoftwareType,DateUTC
2013-07-08 00:02:00,76.5,75.6,30.10,WSW,245,0.0,1.0,97,0.00,,,0.17,meteohub,2013-07-08 04:02:00,
2013-07-08 00:06:00,76.6,75.7,30.10,WSW,245,0.0,1.0,97,0.00,,,0.00,meteohub,2013-07-08 04:06:00,
2013-07-08 00:09:00,76.6,75.7,30.10,WSW,245,0.0,1.0,97,0.00,,,0.00,meteohub,2013-07-08 04:09:00,
2013-07-08 00:12:00,76.5,75.6,30.10,WSW,245,0.0,0.0,97,0.00,,,0.00,meteohub,2013-07-08 04:12:00,
2013-07-08 00:15:00,76.5,75.6,30.10,WSW,245,0.0,0.0,97,0.00,,,0.00,meteohub,2013-07-08 04:15:00,
2013-07-08 00:21:00,76.5,75.6,30.10,WSW,245,0.0,0.0,97,0.00,,,0.00,meteohub,2013-07-08 04:21:00,
2013-07-08 00:27:00,76.5,75.6,30.10,WSW,245,0.0,0.0,97,0.00,,,0.00,meteohub,2013-07-08 04:27:00,
2013-07-08 00:32:00,76.6,76.1,30.10,WSW,245,0.0,1.0,98,0.00,,,0.00,meteohub,2013-07-08 04:32:00,
2013-07-08 00:37:00,76.6,75.7,30.10,WSW,245,0.0,1.0,97,0.00,,,0.00,meteohub,2013-07-08 04:37:00,
2013-07-08 00:42:00,76.5,75.6,30.11,WSW,245,0.0,1.0,97,0.00,,,0.00,meteohub,2013-07-08 04:42:00,
2013-07-08 00:47:00,76.6,76.1,30.11,WSW,257,2.0,2.0,98,0.00,,,0.00,meteohub,2013-07-08 04:47:00,
2013-07-08 00:52:00,76.6,75.7,30.11,WSW,257,0.0,3.0,97,0.00,,,0.00,meteohub,2013-07-08 04:52:00,
2013-07-08 00:57:00,76.6,75.7,30.10,East,84,0.0,5.0,97,0.00,,,0.00,meteohub,2013-07-08 04:57:00,
2013-07-08 01:03:00,76.6,75.7,30.10,East,89,0.0,5.0,97,0.00,,,0.00,meteohub,2013-07-08 05:03:00,
2013-07-08 01:09:00,76.5,75.6,30.10,NNE,29,0.0,5.0,97,0.00,,,0.00,meteohub,2013-07-08 05:09:00,
2013-07-08 01:15:00,76.5,75.6,30.10,SW,218,0.0,4.0,97,0.00,,,0.00,meteohub,2013-07-08 05:15:00,
2013-07-08 01:21:00,76.6,75.4,30.10,SE,125,1.0,5.0,96,0.00,,,0.00,meteohub,2013-07-08 05:21:00,
2013-07-08 01:27:00,76.8,75.6,30.10,SSE,148,1.0,8.0,96,0.00,,,0.00,meteohub,2013-07-08 05:27:00,
2013-07-08 01:32:00,77.0,75.4,30.09,SE,135,1.0,8.0,95,0.00,,,0.00,meteohub,2013-07-08 05:32:00,
2013-07-08 01:37:00,77.2,75.4,30.09,SE,134,3.0,8.0,94,0.00,,,0.00,meteohub,2013-07-08 05:37:00,
2013-07-08 01:42:00,77.2,75.0,30.09,SE,126,1.0,6.0,93,0.00,,,0.00,meteohub,2013-07-08 05:42:00,
2013-07-08 01:47:00,77.4,75.2,30.09,SSE,147,2.0,6.0,93,0.00,,,0.00,meteohub,2013-07-08 05:47:00,
2013-07-08 01:52:00,77.5,75.4,30.09,WNW,295,0.0,6.0,93,0.00,,,0.00,meteohub,2013-07-08 05:52:00,
2013-07-08 01:57:00,77.5,75.0,30.09,SSE,151,2.0,5.0,92,0.00,,,0.00,meteohub,2013-07-08 05:57:00,
2013-07-08 02:02:00,77.9,75.4,30.09,East,82,0.0,7.0,92,0.00,,,0.00,meteohub,2013-07-08 06:02:00,
2013-07-08 02:07:00,78.1,75.2,30.09,SSE,150,2.0,7.0,91,0.00,,,0.00,meteohub,2013-07-08 06:07:00,
2013-07-08 02:12:00,78.3,75.4,30.09,ESE,123,1.0,7.0,91,0.00,,,0.00,meteohub,2013-07-08 06:12:00,
2013-07-08 02:17:00,78.3,75.4,30.09,SSE,150,1.0,5.0,91,0.00,,,0.00,meteohub,2013-07-08 06:17:00,
2013-07-08 02:22:00,78.4,75.2,30.09,East,88,2.0,5.0,90,0.00,,,0.00,meteohub,2013-07-08 06:22:00,
2013-07-08 02:27:00,78.4,75.2,30.09,SE,142,1.0,5.0,90,0.00,,,0.00,meteohub,2013-07-08 06:27:00,
2013-07-08 02:32:00,78.4,75.2,30.09,ENE,72,1.0,5.0,90,0.00,,,0.00,meteohub,2013-07-08 06:32:00,
2013-07-08 02:37:00,78.4,75.2,30.09,ESE,115,1.0,5.0,90,0.00,,,0.00,meteohub,2013-07-08 06:37:00,
2013-07-08 02:42:00,78.6,75.4,30.08,East,98,0.0,5.0,90,0.00,,,0.00,meteohub,2013-07-08 06:42:00,
2013-07-08 02:47:00,78.6,75.0,30.08,ESE,123,2.0,7.0,89,0.00,,,0.00,meteohub,2013-07-08 06:47:00,
2013-07-08 02:52:00,78.6,75.0,30.08,East,86,5.0,7.0,89,0.00,,,0.00,meteohub,2013-07-08 06:52:00,
2013-07-08 02:57:00,78.6,75.0,30.08,ESE,113,1.0,7.0,89,0.00,,,0.00,meteohub,2013-07-08 06:57:00,
2013-07-08 03:02:00,78.6,75.0,30.08,SSE,161,0.0,6.0,89,0.00,,,0.00,meteohub,2013-07-08 07:02:00,
2013-07-08 03:07:00,78.4,74.8,30.08,NNE,32,1.0,6.0,89,0.00,,,0.00,meteohub,2013-07-08 07:07:00,
2013-07-08 03:12:00,78.4,74.8,30.08,East,101,0.0,9.0,89,0.00,,,0.00,meteohub,2013-07-08 07:12:00,
2013-07-08 03:17:00,78.4,75.2,30.08,SE,142,2.0,9.0,90,0.00,,,0.00,meteohub,2013-07-08 07:17:00,
2013-07-08 03:22:00,78.3,75.0,30.08,ESE,115,1.0,9.0,90,0.00,,,0.00,meteohub,2013-07-08 07:22:00,
2013-07-08 03:27:00,78.3,75.0,30.08,ENE,78,3.0,5.0,90,0.00,,,0.00,meteohub,2013-07-08 07:27:00,
2013-07-08 03:32:00,78.3,75.0,30.08,ESE,120,2.0,5.0,90,0.00,,,0.00,meteohub,2013-07-08 07:32:00,
2013-07-08 03:37:00,78.1,74.8,30.08,East,82,1.0,5.0,90,0.00,,,0.00,meteohub,2013-07-08 07:37:00,
2013-07-08 03:42:00,78.3,75.0,30.07,SE,144,2.0,4.0,90,0.00,,,0.00,meteohub,2013-07-08 07:42:00,
2013-07-08 03:47:00,78.4,75.2,30.07,SSW,211,1.0,4.0,90,0.00,,,0.00,meteohub,2013-07-08 07:47:00,
2013-07-08 03:52:00,78.4,75.2,30.07,South,170,0.0,4.0,90,0.00,,,0.00,meteohub,2013-07-08 07:52:00,
2013-07-08 03:57:00,78.6,75.0,30.07,South,170,1.0,3.0,89,0.00,,,0.00,meteohub,2013-07-08 07:57:00,
2013-07-08 04:02:00,78.6,75.0,30.07,East,88,0.0,7.0,89,0.00,,,0.00,meteohub,2013-07-08 08:02:00,
2013-07-08 04:07:00,78.6,75.0,30.07,SE,128,1.0,7.0,89,0.00,,,0.00,meteohub,2013-07-08 08:07:00,
2013-07-08 04:12:00,78.4,74.8,30.07,SE,132,2.0,7.0,89,0.00,,,0.00,meteohub,2013-07-08 08:12:00,
2013-07-08 04:17:00,78.4,75.2,30.07,ESE,119,1.0,5.0,90,0.00,,,0.00,meteohub,2013-07-08 08:17:00,
2013-07-08 04:22:00,78.4,75.2,30.07,ESE,119,1.0,5.0,90,0.00,,,0.00,meteohub,2013-07-08 08:22:00,
2013-07-08 04:27:00,78.4,75.2,30.07,ESE,121,2.0,5.0,90,0.00,,,0.00,meteohub,2013-07-08 08:27:00,
2013-07-08 04:32:00,78.4,75.2,30.06,ESE,113,0.0,3.0,90,0.00,,,0.00,meteohub,2013-07-08 08:32:00,
2013-07-08 04:37:00,78.3,75.0,30.06,South,182,1.0,3.0,90,0.00,,,0.00,meteohub,2013-07-08 08:37:00,
2013-07-08 04:42:00,78.3,75.0,30.06,SE,129,0.0,3.0,90,0.00,,,0.00,meteohub,2013-07-08 08:42:00,
2013-07-08 04:47:00,78.3,75.0,30.06,East,87,0.0,4.0,90,0.00,,,0.00,meteohub,2013-07-08 08:47:00,
2013-07-08 04:52:00,78.3,75.0,30.06,East,92,0.0,4.0,90,0.00,,,0.00,meteohub,2013-07-08 08:52:00,
2013-07-08 04:57:00,78.3,75.0,30.06,NE,36,2.0,6.0,90,0.00,,,0.00,meteohub,2013-07-08 08:57:00,
2013-07-08 05:02:00,78.3,75.0,30.06,East,92,2.0,6.0,90,0.00,,,0.00,meteohub,2013-07-08 09:02:00,
2013-07-08 05:07:00,78.1,74.8,30.06,NE,50,2.0,4.0,90,0.00,,,0.00,meteohub,2013-07-08 09:07:00,
2013-07-08 05:12:00,78.1,74.8,30.06,ENE,57,0.0,4.0,90,0.00,,,0.00,meteohub,2013-07-08 09:12:00,
2013-07-08 05:17:00,78.1,75.2,30.06,ENE,77,0.0,4.0,91,0.00,,,0.00,meteohub,2013-07-08 09:17:00,
2013-07-08 05:22:00,77.9,75.0,30.06,SE,135,1.0,4.0,91,0.00,,,0.00,meteohub,2013-07-08 09:22:00,
2013-07-08 05:28:00,77.7,74.8,30.06,NE,39,2.0,5.0,91,0.00,,,0.00,meteohub,2013-07-08 09:28:00,
2013-07-08 05:34:00,77.5,75.0,30.06,NE,39,1.0,5.0,92,0.00,,,0.00,meteohub,2013-07-08 09:34:00,
2013-07-08 05:40:00,77.4,74.8,30.06,NE,48,1.0,3.0,92,0.00,,,0.00,meteohub,2013-07-08 09:40:00,
2013-07-08 05:46:00,77.2,74.7,30.06,NE,48,1.0,3.0,92,0.00,,,0.00,meteohub,2013-07-08 09:46:00,
2013-07-08 05:52:00,77.0,74.8,30.06,NE,56,1.0,4.0,93,0.00,,,0.00,meteohub,2013-07-08 09:52:00,
2013-07-08 05:57:00,76.8,74.7,30.07,ENE,57,1.0,4.0,93,0.00,,,0.00,meteohub,2013-07-08 09:57:00,
2013-07-08 06:02:00,76.8,74.7,30.06,ENE,58,1.0,4.0,93,0.00,,,0.00,meteohub,2013-07-08 10:02:00,
2013-07-08 06:07:00,76.8,74.7,30.07,ENE,58,0.0,4.0,93,0.00,,,0.00,meteohub,2013-07-08 10:07:00,
2013-07-08 06:12:00,76.6,74.5,30.07,ENE,58,1.0,4.0,93,0.00,,,0.00,meteohub,2013-07-08 10:12:00,
2013-07-08 06:17:00,76.6,74.8,30.07,ENE,69,3.0,4.0,94,0.00,,,0.00,meteohub,2013-07-08 10:17:00,
2013-07-08 06:22:00,76.6,74.8,30.07,ENE,69,1.0,4.0,94,0.00,,,0.00,meteohub,2013-07-08 10:22:00,
2013-07-08 06:27:00,76.6,74.8,30.08,NE,41,0.0,4.0,94,0.00,,,0.00,meteohub,2013-07-08 10:27:00,
2013-07-08 06:32:00,76.6,74.8,30.08,East,80,1.0,4.0,94,0.00,,,0.00,meteohub,2013-07-08 10:32:00,
2013-07-08 06:37:00,76.6,74.8,30.08,ENE,63,1.0,5.0,94,0.00,,,0.00,meteohub,2013-07-08 10:37:00,
2013-07-08 06:42:00,76.6,74.8,30.08,ENE,64,3.0,5.0,94,0.00,,,0.00,meteohub,2013-07-08 10:42:00,
2013-07-08 06:47:00,76.6,74.8,30.08,ENE,73,0.0,5.0,94,0.00,,,0.00,meteohub,2013-07-08 10:47:00,
2013-07-08 06:52:00,76.6,74.8,30.08,ENE,74,1.0,4.0,94,0.00,,,0.00,meteohub,2013-07-08 10:52:00,
2013-07-08 06:57:00,76.6,74.8,30.08,ENE,74,3.0,4.0,94,0.00,,,0.00,meteohub,2013-07-08 10:57:00,
2013-07-08 07:02:00,76.6,75.0,30.08,East,80,3.0,4.0,95,0.00,,,0.00,meteohub,2013-07-08 11:02:00,
2013-07-08 07:07:00,76.8,75.2,30.08,ENE,69,0.0,5.0,95,0.00,,,0.00,meteohub,2013-07-08 11:07:00,
2013-07-08 07:12:00,76.8,75.2,30.09,SSW,194,2.0,5.0,95,0.00,,,0.00,meteohub,2013-07-08 11:12:00,
2013-07-08 07:17:00,77.2,75.4,30.09,East,79,0.0,6.0,94,0.00,,,0.00,meteohub,2013-07-08 11:17:00,
2013-07-08 07:22:00,77.5,75.4,30.09,ENE,73,2.0,6.0,93,0.00,,,0.00,meteohub,2013-07-08 11:22:00,
2013-07-08 07:27:00,78.1,75.9,30.09,SSE,151,1.0,6.0,93,0.00,,,0.00,meteohub,2013-07-08 11:27:00,
2013-07-08 07:32:00,78.3,75.7,30.09,ENE,69,4.0,5.0,92,0.00,,,0.00,meteohub,2013-07-08 11:32:00,
2013-07-08 07:37:00,78.4,75.9,30.09,East,88,0.0,6.0,92,0.00,,,0.00,meteohub,2013-07-08 11:37:00,
2013-07-08 07:42:00,78.6,76.1,30.09,East,101,2.0,8.0,92,0.00,,,0.00,meteohub,2013-07-08 11:42:00,
2013-07-08 07:47:00,78.6,75.7,30.09,ESE,105,2.0,8.0,91,0.00,,,0.00,meteohub,2013-07-08 11:47:00,
2013-07-08 07:52:00,79.0,76.1,30.09,East,85,2.0,6.0,91,0.00,,,0.00,meteohub,2013-07-08 11:52:00,
2013-07-08 07:57:00,79.0,76.1,30.09,NW,312,2.0,6.0,91,0.00,,,0.00,meteohub,2013-07-08 11:57:00,
2013-07-08 08:02:00,79.0,76.1,30.09,East,83,2.0,9.0,91,0.00,,,0.00,meteohub,2013-07-08 12:02:00,
2013-07-08 08:07:00,79.2,76.3,30.09,NNE,33,5.0,9.0,91,0.00,,,0.00,meteohub,2013-07-08 12:07:00,
2013-07-08 08:12:00,79.2,75.9,30.09,SE,140,4.0,9.0,90,0.00,,,0.00,meteohub,2013-07-08 12:12:00,
2013-07-08 08:17:00,79.2,75.9,30.09,ENE,60,1.0,8.0,90,0.00,,,0.00,meteohub,2013-07-08 12:17:00,
2013-07-08 08:22:00,79.3,76.5,30.10,NNE,30,3.0,7.0,91,0.00,,,0.00,meteohub,2013-07-08 12:22:00,
2013-07-08 08:27:00,79.3,76.1,30.09,East,100,2.0,7.0,90,0.00,,,0.00,meteohub,2013-07-08 12:27:00,
2013-07-08 08:32:00,79.5,75.9,30.10,East,84,0.0,7.0,89,0.00,,,0.00,meteohub,2013-07-08 12:32:00,
2013-07-08 08:37:00,79.7,76.1,30.10,ESE,113,3.0,7.0,89,0.00,,,0.00,meteohub,2013-07-08 12:37:00,
2013-07-08 08:42:00,79.9,75.9,30.10,NNW,327,1.0,7.0,88,0.00,,,0.00,meteohub,2013-07-08 12:42:00,
2013-07-08 08:47:00,80.1,76.1,30.10,NNE,29,3.0,5.0,88,0.00,,,0.00,meteohub,2013-07-08 12:47:00,
2013-07-08 08:52:00,80.2,76.3,30.10,ENE,74,3.0,5.0,88,0.00,,,0.00,meteohub,2013-07-08 12:52:00,
2013-07-08 08:57:00,80.4,76.1,30.10,SE,130,0.0,7.0,87,0.00,,,0.00,meteohub,2013-07-08 12:57:00,
2013-07-08 09:02:00,80.8,76.3,30.10,ENE,68,3.0,7.0,86,0.00,,,0.00,meteohub,2013-07-08 13:02:00,
2013-07-08 09:07:00,81.0,76.1,30.11,SE,140,4.0,7.0,85,0.00,,,0.00,meteohub,2013-07-08 13:07:00,
2013-07-08 09:12:00,81.3,76.5,30.11,SE,133,0.0,7.0,85,0.00,,,0.00,meteohub,2013-07-08 13:12:00,
2013-07-08 09:17:00,81.9,76.1,30.11,SE,138,3.0,7.0,83,0.00,,,0.00,meteohub,2013-07-08 13:17:00,
2013-07-08 09:22:00,82.2,76.5,30.11,ESE,117,1.0,7.0,83,0.00,,,0.00,meteohub,2013-07-08 13:22:00,
2013-07-08 09:27:00,82.8,76.6,30.11,ENE,64,3.0,7.0,82,0.00,,,0.00,meteohub,2013-07-08 13:27:00,
2013-07-08 09:32:00,82.8,75.9,30.11,SE,132,2.0,6.0,80,0.00,,,0.00,meteohub,2013-07-08 13:32:00,
2013-07-08 09:37:00,82.9,76.1,30.12,ENE,57,3.0,7.0,80,0.00,,,0.00,meteohub,2013-07-08 13:37:00,
2013-07-08 09:42:00,83.5,76.6,30.12,ESE,121,2.0,7.0,80,0.00,,,0.00,meteohub,2013-07-08 13:42:00,
2013-07-08 09:47:00,83.8,76.3,30.12,SE,132,3.0,7.0,78,0.00,,,0.00,meteohub,2013-07-08 13:47:00,
2013-07-08 09:52:00,84.0,76.5,30.12,SE,124,1.0,6.0,78,0.00,,,0.00,meteohub,2013-07-08 13:52:00,
2013-07-08 09:57:00,84.4,75.9,30.12,East,93,5.0,6.0,76,0.00,,,0.00,meteohub,2013-07-08 13:57:00,
2013-07-08 10:02:00,84.4,75.9,30.12,ENE,76,1.0,7.0,76,0.00,,,0.00,meteohub,2013-07-08 14:02:00,
2013-07-08 10:07:00,84.7,76.3,30.12,ESE,119,2.0,8.0,76,0.00,,,0.00,meteohub,2013-07-08 14:07:00,
2013-07-08 10:12:00,84.9,75.7,30.12,ENE,75,3.0,8.0,74,0.00,,,0.00,meteohub,2013-07-08 14:12:00,
2013-07-08 10:17:00,84.7,76.3,30.13,SSE,164,3.0,8.0,76,0.00,,,0.00,meteohub,2013-07-08 14:17:00,
2013-07-08 10:22:00,85.1,76.3,30.13,SE,128,2.0,8.0,75,0.00,,,0.00,meteohub,2013-07-08 14:22:00,
2013-07-08 10:27:00,85.5,75.7,30.13,ESE,123,2.0,8.0,73,0.00,,,0.00,meteohub,2013-07-08 14:27:00,
2013-07-08 10:32:00,85.6,75.9,30.12,SSE,150,4.0,9.0,73,0.00,,,0.00,meteohub,2013-07-08 14:32:00,
2013-07-08 10:37:00,86.2,77.0,30.13,ESE,111,2.0,9.0,74,0.00,,,0.00,meteohub,2013-07-08 14:37:00,
2013-07-08 10:42:00,86.5,75.6,30.13,SE,133,2.0,9.0,70,0.00,,,0.00,meteohub,2013-07-08 14:42:00,
2013-07-08 10:47:00,86.7,75.4,30.13,ESE,122,2.0,7.0,69,0.00,,,0.00,meteohub,2013-07-08 14:47:00,
2013-07-08 10:52:00,86.7,75.4,30.13,SE,127,2.0,7.0,69,0.00,,,0.00,meteohub,2013-07-08 14:52:00,
2013-07-08 10:57:00,87.3,75.9,30.13,SE,128,4.0,7.0,69,0.00,,,0.00,meteohub,2013-07-08 14:57:00,
2013-07-08 11:02:00,87.4,75.6,30.13,WSW,244,3.0,6.0,68,0.00,,,0.00,meteohub,2013-07-08 15:02:00,
2013-07-08 11:07:00,87.3,75.9,30.13,SE,133,1.0,6.0,69,0.00,,,0.00,meteohub,2013-07-08 15:07:00,
2013-07-08 11:12:00,87.4,75.9,30.13,ENE,71,1.0,6.0,69,0.00,,,0.00,meteohub,2013-07-08 15:12:00,
2013-07-08 11:17:00,87.6,75.7,30.13,South,182,2.0,7.0,68,0.00,,,0.00,meteohub,2013-07-08 15:17:00,
2013-07-08 11:22:00,87.6,76.6,30.13,SE,138,0.0,7.0,70,0.00,,,0.00,meteohub,2013-07-08 15:22:00,
2013-07-08 11:27:00,88.2,76.3,30.13,East,81,2.0,7.0,68,0.00,,,0.00,meteohub,2013-07-08 15:27:00,
2013-07-08 11:32:00,88.3,75.6,30.13,ENE,74,1.0,6.0,66,0.00,,,0.00,meteohub,2013-07-08 15:32:00,
2013-07-08 11:37:00,88.5,75.7,30.13,SE,146,5.0,6.0,66,0.00,,,0.00,meteohub,2013-07-08 15:37:00,
2013-07-08 11:42:00,88.3,76.5,30.13,ENE,57,3.0,7.0,68,0.00,,,0.00,meteohub,2013-07-08 15:42:00,
2013-07-08 11:47:00,88.0,75.2,30.13,SW,219,1.0,7.0,66,0.00,,,0.00,meteohub,2013-07-08 15:47:00,
2013-07-08 11:52:00,87.6,75.4,30.13,SE,129,0.0,7.0,67,0.00,,,0.00,meteohub,2013-07-08 15:52:00,
2013-07-08 11:57:00,87.6,74.8,30.13,NE,53,1.0,7.0,66,0.00,,,0.00,meteohub,2013-07-08 15:57:00,
2013-07-08 12:02:00,88.0,76.1,30.13,SE,142,3.0,7.0,68,0.00,,,0.00,meteohub,2013-07-08 16:02:00,
2013-07-08 12:07:00,88.3,75.0,30.13,SSW,205,1.0,7.0,65,0.00,,,0.00,meteohub,2013-07-08 16:07:00,
2013-07-08 12:12:00,89.1,75.2,30.13,SE,138,0.0,5.0,64,0.00,,,0.00,meteohub,2013-07-08 16:12:00,
2013-07-08 12:17:00,89.2,75.9,30.13,SSE,159,2.0,5.0,65,0.00,,,0.00,meteohub,2013-07-08 16:17:00,
2013-07-08 12:22:00,89.6,76.3,30.13,SE,146,2.0,5.0,65,0.00,,,0.00,meteohub,2013-07-08 16:22:00,
2013-07-08 12:27:00,90.0,76.1,30.13,South,180,1.0,5.0,64,0.00,,,0.00,meteohub,2013-07-08 16:27:00,
2013-07-08 12:32:00,90.3,76.5,30.13,SSW,198,1.0,5.0,64,0.00,,,0.00,meteohub,2013-07-08 16:32:00,
2013-07-08 12:37:00,90.7,76.3,30.13,ESE,121,5.0,5.0,63,0.00,,,0.00,meteohub,2013-07-08 16:37:00,
2013-07-08 12:42:00,90.9,75.6,30.13,South,182,2.0,7.0,61,0.00,,,0.00,meteohub,2013-07-08 16:42:00,
2013-07-08 12:49:00,90.9,75.6,30.13,SW,218,2.0,7.0,61,0.00,,,0.00,meteohub,2013-07-08 16:49:00,
2013-07-08 12:55:00,90.3,75.6,30.13,SE,144,3.0,7.0,62,0.00,,,0.00,meteohub,2013-07-08 16:55:00,
2013-07-08 13:02:00,90.3,75.6,30.13,SW,219,1.0,7.0,62,0.00,,,0.00,meteohub,2013-07-08 17:02:00,
2013-07-08 13:07:00,90.3,75.9,30.13,SE,126,0.0,7.0,63,0.00,,,0.00,meteohub,2013-07-08 17:07:00,
2013-07-08 13:14:00,90.9,76.5,30.12,ESE,119,0.0,6.0,63,0.00,,,0.00,meteohub,2013-07-08 17:14:00,
2013-07-08 13:20:00,91.0,75.2,30.12,NE,53,4.0,6.0,60,0.00,,,0.00,meteohub,2013-07-08 17:20:00,
2013-07-08 13:26:00,90.7,75.9,30.12,ENE,74,2.0,7.0,62,0.00,,,0.00,meteohub,2013-07-08 17:26:00,
2013-07-08 13:32:00,91.0,75.7,30.12,SE,135,0.0,7.0,61,0.00,,,0.00,meteohub,2013-07-08 17:32:00,
2013-07-08 13:37:00,90.9,75.0,30.12,ESE,121,1.0,7.0,60,0.00,,,0.00,meteohub,2013-07-08 17:37:00,
2013-07-08 13:44:00,90.9,75.0,30.12,ENE,69,1.0,7.0,60,0.00,,,0.00,meteohub,2013-07-08 17:44:00,
2013-07-08 13:51:00,91.4,75.6,30.11,SE,124,3.0,5.0,60,0.00,,,0.00,meteohub,2013-07-08 17:51:00,
2013-07-08 13:57:00,91.8,75.9,30.11,ESE,103,2.0,5.0,60,0.00,,,0.00,meteohub,2013-07-08 17:57:00,
2013-07-08 14:02:00,91.9,75.0,30.11,SE,138,3.0,7.0,58,0.00,,,0.00,meteohub,2013-07-08 18:02:00,
2013-07-08 14:07:00,92.1,75.2,30.11,SE,140,3.0,7.0,58,0.00,,,0.00,meteohub,2013-07-08 18:07:00,
2013-07-08 14:12:00,92.1,75.7,30.11,NNE,22,1.0,7.0,59,0.00,,,0.00,meteohub,2013-07-08 18:12:00,
2013-07-08 14:18:00,92.3,74.3,30.10,SSE,148,2.0,5.0,56,0.00,,,0.00,meteohub,2013-07-08 18:18:00,
2013-07-08 14:24:00,91.9,74.5,30.10,South,186,4.0,5.0,57,0.00,,,0.00,meteohub,2013-07-08 18:24:00,
2013-07-08 14:31:00,92.5,75.0,30.10,ESE,123,2.0,5.0,57,0.00,,,0.00,meteohub,2013-07-08 18:31:00,
2013-07-08 14:37:00,92.3,74.8,30.09,ESE,113,3.0,8.0,57,0.00,,,0.00,meteohub,2013-07-08 18:37:00,
2013-07-08 14:43:00,92.5,74.5,30.10,East,97,2.0,8.0,56,0.00,,,0.00,meteohub,2013-07-08 18:43:00,
2013-07-08 14:50:00,92.1,74.7,30.09,SE,136,2.0,5.0,57,0.00,,,0.00,meteohub,2013-07-08 18:50:00,
2013-07-08 14:56:00,91.9,74.5,30.09,SSE,151,1.0,7.0,57,0.00,,,0.00,meteohub,2013-07-08 18:56:00,
2013-07-08 15:02:00,91.9,74.5,30.09,ESE,116,2.0,8.0,57,0.00,,,0.00,meteohub,2013-07-08 19:02:00,
2013-07-08 15:07:00,91.8,74.8,30.09,ENE,73,1.0,8.0,58,0.00,,,0.00,meteohub,2013-07-08 19:07:00,
2013-07-08 15:12:00,91.9,75.0,30.09,ENE,66,5.0,8.0,58,0.00,,,0.00,meteohub,2013-07-08 19:12:00,
2013-07-08 15:18:00,92.1,76.3,30.09,SE,139,1.0,8.0,60,0.00,,,0.00,meteohub,2013-07-08 19:18:00,
2013-07-08 15:24:00,92.5,74.5,30.08,SE,128,1.0,8.0,56,0.00,,,0.00,meteohub,2013-07-08 19:24:00,
2013-07-08 15:30:00,92.7,74.7,30.08,ENE,65,3.0,5.0,56,0.00,,,0.00,meteohub,2013-07-08 19:30:00,
2013-07-08 15:37:00,92.8,74.8,30.08,ENE,71,2.0,5.0,56,0.00,,,0.00,meteohub,2013-07-08 19:37:00,
2013-07-08 15:42:00,93.4,74.8,30.08,NNW,348,2.0,5.0,55,0.00,,,0.00,meteohub,2013-07-08 19:42:00,
2013-07-08 15:47:00,94.1,74.8,30.08,ENE,74,2.0,5.0,54,0.00,,,0.00,meteohub,2013-07-08 19:47:00,
2013-07-08 15:52:00,94.1,74.8,30.07,SSE,148,1.0,4.0,54,0.00,,,0.00,meteohub,2013-07-08 19:52:00,
2013-07-08 15:57:00,93.7,73.9,30.07,SE,132,1.0,4.0,53,0.00,,,0.00,meteohub,2013-07-08 19:57:00,
2013-07-08 16:02:00,93.9,73.6,30.06,ESE,117,1.0,4.0,52,0.00,,,0.00,meteohub,2013-07-08 20:02:00,
2013-07-08 16:09:00,93.7,73.4,30.06,ESE,123,2.0,4.0,52,0.00,,,0.00,meteohub,2013-07-08 20:09:00,
2013-07-08 16:14:00,93.4,73.8,30.06,ESE,107,1.0,5.0,53,0.00,,,0.00,meteohub,2013-07-08 20:14:00,
2013-07-08 16:20:00,93.7,73.4,30.06,West,267,1.0,5.0,52,0.00,,,0.00,meteohub,2013-07-08 20:20:00,
2013-07-08 16:27:00,94.3,72.9,30.05,ESE,115,1.0,4.0,50,0.00,,,0.00,meteohub,2013-07-08 20:27:00,
2013-07-08 16:32:00,94.3,72.9,30.05,NE,50,3.0,4.0,50,0.00,,,0.00,meteohub,2013-07-08 20:32:00,
2013-07-08 16:37:00,94.3,72.9,30.05,East,94,1.0,5.0,50,0.00,,,0.00,meteohub,2013-07-08 20:37:00,
2013-07-08 16:42:00,94.3,76.6,30.05,SW,216,3.0,5.0,57,0.00,,,0.00,meteohub,2013-07-08 20:42:00,
2013-07-08 16:49:00,93.9,77.4,30.05,SW,234,1.0,4.0,59,0.00,,,0.00,meteohub,2013-07-08 20:49:00,
2013-07-08 16:55:00,93.0,77.0,30.05,West,267,0.0,4.0,60,0.00,,,0.00,meteohub,2013-07-08 20:55:00,
2013-07-08 17:01:00,92.8,76.8,30.05,West,267,1.0,4.0,60,0.00,,,0.00,meteohub,2013-07-08 21:01:00,
2013-07-08 17:07:00,92.7,73.6,30.05,NW,316,2.0,3.0,54,0.00,,,0.00,meteohub,2013-07-08 21:07:00,
2013-07-08 17:14:00,92.3,77.9,30.04,NW,316,2.0,3.0,63,0.00,,,0.00,meteohub,2013-07-08 21:14:00,
2013-07-08 17:21:00,91.8,77.9,30.04,West,271,0.0,4.0,64,0.00,,,0.00,meteohub,2013-07-08 21:21:00,
2013-07-08 17:26:00,91.8,76.8,30.04,West,271,1.0,4.0,62,0.00,,,0.00,meteohub,2013-07-08 21:26:00,
2013-07-08 17:32:00,91.8,77.9,30.04,NE,35,3.0,4.0,64,0.00,,,0.00,meteohub,2013-07-08 21:32:00,
2013-07-08 17:39:00,92.1,77.7,30.04,WNW,300,1.0,3.0,63,0.00,,,0.00,meteohub,2013-07-08 21:39:00,
2013-07-08 17:45:00,91.4,77.5,30.04,SW,235,4.0,7.0,64,0.00,,,0.00,meteohub,2013-07-08 21:45:00,
2013-07-08 17:51:00,90.3,77.4,30.04,WSW,257,0.0,7.0,66,0.00,,,0.00,meteohub,2013-07-08 21:51:00,
2013-07-08 17:57:00,90.3,77.4,30.04,North,355,2.0,7.0,66,0.00,,,0.00,meteohub,2013-07-08 21:57:00,
2013-07-08 18:02:00,90.3,77.4,30.04,West,267,3.0,6.0,66,0.00,,,0.00,meteohub,2013-07-08 22:02:00,
2013-07-08 18:07:00,89.1,77.2,30.04,WSW,249,5.0,5.0,68,0.00,,,0.00,meteohub,2013-07-08 22:07:00,
2013-07-08 18:13:00,87.4,76.8,30.05,WSW,251,3.0,6.0,71,0.00,,,0.00,meteohub,2013-07-08 22:13:00,
2013-07-08 18:20:00,86.5,76.8,30.04,SW,234,4.0,8.0,73,0.00,,,0.00,meteohub,2013-07-08 22:20:00,
2013-07-08 18:26:00,85.8,77.0,30.04,WSW,252,3.0,9.0,75,0.00,,,0.00,meteohub,2013-07-08 22:26:00,
2013-07-08 18:32:00,85.6,76.8,30.04,West,265,2.0,9.0,75,0.00,,,0.00,meteohub,2013-07-08 22:32:00,
2013-07-08 18:40:00,85.5,77.4,30.04,WSW,252,4.0,9.0,77,0.00,,,0.00,meteohub,2013-07-08 22:40:00,
2013-07-08 18:46:00,84.4,77.5,30.04,WNW,302,2.0,6.0,80,0.01,,,0.01,meteohub,2013-07-08 22:46:00,
2013-07-08 18:52:00,83.5,78.4,30.06,ENE,59,1.0,6.0,85,0.02,,,0.02,meteohub,2013-07-08 22:52:00,
2013-07-08 18:57:00,82.0,75.6,30.07,ENE,70,7.0,7.0,81,0.07,,,0.07,meteohub,2013-07-08 22:57:00,
2013-07-08 19:02:00,79.5,74.7,30.08,NNE,28,2.0,14.0,85,0.24,,,0.24,meteohub,2013-07-08 23:02:00,
2013-07-08 19:08:00,75.7,72.3,30.06,WNW,292,9.0,14.0,89,0.43,,,0.43,meteohub,2013-07-08 23:08:00,
2013-07-08 19:15:00,74.3,72.1,30.06,NNE,15,4.0,14.0,93,0.76,,,0.76,meteohub,2013-07-08 23:15:00,
2013-07-08 19:21:00,74.3,72.5,30.05,NNW,342,3.0,12.0,94,0.80,,,0.80,meteohub,2013-07-08 23:21:00,
2013-07-08 19:27:00,74.1,72.0,30.06,West,265,1.0,10.0,93,0.80,,,0.80,meteohub,2013-07-08 23:27:00,
2013-07-08 19:34:00,73.8,71.6,30.06,WSW,256,2.0,10.0,93,0.80,,,0.80,meteohub,2013-07-08 23:34:00,
2013-07-08 19:40:00,73.6,71.4,30.06,NW,304,2.0,10.0,93,0.80,,,0.80,meteohub,2013-07-08 23:40:00,
2013-07-08 19:46:00,73.2,71.4,30.06,WSW,251,5.0,7.0,94,0.79,,,0.80,meteohub,2013-07-08 23:46:00,
2013-07-08 19:52:00,73.2,71.1,30.06,West,271,1.0,7.0,93,0.75,,,0.80,meteohub,2013-07-08 23:52:00,
2013-07-08 19:57:00,73.2,71.4,30.08,West,271,0.0,6.0,94,0.73,,,0.80,meteohub,2013-07-08 23:57:00,
2013-07-08 20:02:00,73.2,71.8,30.08,West,271,2.0,6.0,95,0.52,,,0.80,meteohub,2013-07-09 00:02:00,
2013-07-08 20:07:00,73.4,72.0,30.08,ENE,59,2.0,6.0,95,0.21,,,0.80,meteohub,2013-07-09 00:07:00,
2013-07-08 20:14:00,73.8,72.5,30.08,NNE,30,1.0,3.0,96,0.02,,,0.80,meteohub,2013-07-09 00:14:00,
2013-07-08 20:21:00,73.8,72.5,30.08,NNE,30,1.0,4.0,96,0.01,,,0.81,meteohub,2013-07-09 00:21:00,
2013-07-08 20:26:00,73.8,72.5,30.09,NNE,30,0.0,2.0,96,0.01,,,0.81,meteohub,2013-07-09 00:26:00,
2013-07-08 20:32:00,73.8,72.5,30.09,NNE,30,0.0,2.0,96,0.01,,,0.81,meteohub,2013-07-09 00:32:00,
2013-07-08 20:37:00,73.8,72.5,30.08,NNE,30,0.0,2.0,96,0.01,,,0.81,meteohub,2013-07-09 00:37:00,
2013-07-08 20:42:00,73.8,72.5,30.09,NNE,30,0.0,1.0,96,0.01,,,0.81,meteohub,2013-07-09 00:42:00,
2013-07-08 20:47:00,73.9,72.7,30.09,NNE,30,0.0,2.0,96,0.01,,,0.81,meteohub,2013-07-09 00:47:00,
2013-07-08 20:53:00,74.1,73.2,30.09,NNE,30,0.0,2.0,97,0.01,,,0.81,meteohub,2013-07-09 00:53:00,
2013-07-08 20:58:00,74.3,73.4,30.09,NNE,30,0.0,2.0,97,0.01,,,0.81,meteohub,2013-07-09 00:58:00,
2013-07-08 21:04:00,74.5,73.6,30.09,NNE,30,0.0,1.0,97,0.01,,,0.81,meteohub,2013-07-09 01:04:00,
2013-07-08 21:10:00,74.7,73.8,30.10,NNE,30,0.0,2.0,97,0.01,,,0.81,meteohub,2013-07-09 01:10:00,
2013-07-08 21:17:00,74.8,73.9,30.10,NNE,30,0.0,2.0,97,0.00,,,0.81,meteohub,2013-07-09 01:17:00,
2013-07-08 21:23:00,74.8,73.9,30.10,NNE,30,0.0,2.0,97,0.00,,,0.81,meteohub,2013-07-09 01:23:00,
2013-07-08 21:29:00,74.8,73.9,30.11,NNE,30,0.0,2.0,97,0.00,,,0.81,meteohub,2013-07-09 01:29:00,
2013-07-08 21:36:00,74.8,73.9,30.11,NNE,30,0.0,1.0,97,0.00,,,0.81,meteohub,2013-07-09 01:36:00,
2013-07-08 21:43:00,74.8,73.9,30.11,NNE,30,0.0,1.0,97,0.00,,,0.81,meteohub,2013-07-09 01:43:00,
2013-07-08 21:48:00,74.8,73.9,30.11,NNE,30,0.0,2.0,97,0.00,,,0.81,meteohub,2013-07-09 01:48:00,
2013-07-08 21:55:00,75.0,74.1,30.11,NNE,30,0.0,2.0,97,0.00,,,0.81,meteohub,2013-07-09 01:55:00,
2013-07-08 22:01:00,75.2,74.3,30.11,NNE,30,0.0,1.0,97,0.00,,,0.81,meteohub,2013-07-09 02:01:00,
2013-07-08 22:07:00,75.4,74.5,30.11,NNE,30,0.0,1.0,97,0.00,,,0.81,meteohub,2013-07-09 02:07:00,
2013-07-08 22:12:00,75.4,74.5,30.11,NNE,30,0.0,1.0,97,0.00,,,0.81,meteohub,2013-07-09 02:12:00,
2013-07-08 22:19:00,75.0,74.1,30.12,NNE,30,0.0,1.0,97,0.00,,,0.81,meteohub,2013-07-09 02:19:00,
2013-07-08 22:26:00,75.0,74.1,30.12,NNE,30,0.0,1.0,97,0.00,,,0.81,meteohub,2013-07-09 02:26:00,
2013-07-08 22:32:00,75.0,74.1,30.12,NNE,30,0.0,1.0,97,0.00,,,0.81,meteohub,2013-07-09 02:32:00,
2013-07-08 22:38:00,75.0,74.1,30.12,NNE,30,0.0,1.0,97,0.00,,,0.81,meteohub,2013-07-09 02:38:00,
2013-07-08 22:45:00,75.2,74.7,30.12,NNE,30,0.0,1.0,98,0.00,,,0.81,meteohub,2013-07-09 02:45:00,
2013-07-08 22:51:00,75.2,74.3,30.13,NNE,30,0.0,1.0,97,0.00,,,0.81,meteohub,2013-07-09 02:51:00,
2013-07-08 22:57:00,75.4,74.5,30.13,NNE,30,0.0,1.0,97,0.00,,,0.81,meteohub,2013-07-09 02:57:00,
2013-07-08 23:02:00,75.4,74.5,30.13,NNE,30,0.0,1.0,97,0.00,,,0.81,meteohub,2013-07-09 03:02:00,
2013-07-08 23:07:00,75.4,74.5,30.13,NNE,30,1.0,1.0,97,0.00,,,0.81,meteohub,2013-07-09 03:07:00,
2013-07-08 23:12:00,75.6,74.7,30.13,NNE,30,0.0,2.0,97,0.00,,,0.81,meteohub,2013-07-09 03:12:00,
2013-07-08 23:18:00,75.4,74.5,30.13,NNE,30,0.0,2.0,97,0.00,,,0.81,meteohub,2013-07-09 03:18:00,
2013-07-08 23:25:00,75.4,74.5,30.13,NNE,30,0.0,2.0,97,0.00,,,0.81,meteohub,2013-07-09 03:25:00,
2013-07-08 23:31:00,75.6,75.0,30.13,NNE,30,0.0,2.0,98,0.00,,,0.81,meteohub,2013-07-09 03:31:00,
2013-07-08 23:37:00,75.6,75.0,30.13,NNE,30,0.0,2.0,98,0.00,,,0.81,meteohub,2013-07-09 03:37:00,
2013-07-08 23:42:00,75.7,75.2,30.13,NNE,30,0.0,2.0,98,0.00,,,0.81,meteohub,2013-07-09 03:42:00,
2013-07-08 23:47:00,75.7,75.2,30.14,NNE,30,0.0,1.0,98,0.00,,,0.81,meteohub,2013-07-09 03:47:00,
2013-07-08 23:53:00,75.9,75.4,30.14,NNE,30,0.0,1.0,98,0.00,,,0.81,meteohub,2013-07-09 03:53:00,
2013-07-08 23:59:00,75.9,75.4,30.14,NNE,30,0.0,1.0,98,0.00,,,0.81,meteohub,2013-07-09 03:59:00,